Temp
15 14 14 13 12 12 12 12 11 11 11 10 10 11 10 10 10 11 11 10 11 10 11 10 10 9 9 8 9 8 8 8 8 8 8 7 7 7 7 7 7 8 7
15 14 14 13 12 12 12 12 11 11 11 10 10 10 10 10 10 10 10 9 10 10 10 10 10 9 9 8 8 8 8 8 8 8 8 7 7 7 7 7 7 7 7
15 15 15 13 12 12 12 11 10 11 10 10 9 9 9 9 9 9 9 9 9 9 10 9 9 9 9 9 8 8 8 8 8 8 7 7 7 7 7 7 6 6 6
15 15 15 13 12 12 12 11 11 11 10 10 10 9 9 9 8 8 8 8 8 8 7 9 8 9 9 8 8 8 8 7 7 7 7 6 6 6 6 6 6 6 6
15 15 15 13 14 12 11 11 11 11 10 10 9 9 9 8 8 8 7 7 7 7 7 7 9 8 8 8 8 8 7 7 7 7 6 6 6 6 6 6 6 6 6
15 15 14 14 13 12 12 11 10 10 10 10 9 8 8 8 8 8 7 7 6 7 7 7 7 8 8 8 8 8 7 7 7 6 6 6 6 5 5 5 5 5 6
15 15 14 14 13 12 13 12 10 10 9 9 9 8 8 7 7 7 7 7 6 6 7 7 6 7 7 7 7 7 7 7 6 6 6 6 6 5 5 5 6 6 6
15 14 15 14 13 13 12 12 11 10 9 9 11 11 11 9 8 7 7 7 6 6 6 6 6 6 6 6 6 6 6 6 6 6 5 5 5 5 5 5 5 5 5
15 14 15 15 14 13 13 12 12 10 10 9 10 12 12 14 10 7 7 7 6 6 6 6 6 6 5 5 5 5 5 5 5 5 5 5 5 5 5 5 4 4 5
15 15 15 14 14 14 13 13 12 11 11 11 10 10 10 11 13 11 8 7 6 6 5 5 5 6 5 4 4 4 4 4 4 5 5 5 5 5 4 4 4 4 4
15 14 14 14 14 14 13 13 12 11 11 12 11 10 10 10 10 12 12 8 6 6 6 5 5 5 5 5 4 4 3 3 3 4 4 4 4 4 4 4 3 3 3
15 15 14 14 14 14 14 14 13 13 12 11 11 11 12 13 12 12 11 10 10 7 6 5 5 5 5 4 4 4 3 3 3 3 3 3 3 3 3 3 3 2 2
14 15 14 13 13 14 14 14 14 13 12 11 11 12 12 12 12 12 12 10 10 7 6 5 5 5 5 4 4 4 3 3 3 4 3 2 2 2 1 1 2 2 2
15 15 15 14 14 14 14 14 14 14 12 12 12 12 12 12 12 12 12 11 11 9 7 8 5 5 4 4 4 5 3 4 4 4 3 3 3 3 3 3 2 1 1
15 15 15 14 14 14 14 14 13 13 12 12 11 12 12 12 13 13 13 12 14 14 12 8 7 4 4 5 4 4 3 4 4 3 3 3 3 3 3 2 2 2 2
14 14 14 14 14 14 14 13 13 13 13 12 11 11 12 12 12 12 13 12 12 14 16 10 7 5 4 5 4 4 4 4 4 3 3 3 3 2 2 2 2 2 2
15 14 14 14 14 14 14 13 13 14 13 12 12 12 12 13 13 13 13 11 11 11 14 8 7 6 4 4 4 4 4 3 3 4 3 3 3 3 2 2 2 2 2
15 14 15 14 14 14 14 14 13 13 13 12 12 12 12 13 13 13 13 11 11 10 12 10 7 5 5 4 4 3 3 3 3 3 3 3 3 2 2 2 2 2 2
13 14 14 14 14 15 14 14 14 14 14 13 13 13 14 13 13 13 13 11 11 10 10 10 7 5 5 4 3 3 3 3 2 3 3 3 3 3 2 2 2 2 1
13 13 15 15 15 15 14 14 14 13 14 13 13 14 14 14 14 13 13 13 12 9 8 9 8 6 5 4 4 4 3 3 3 3 3 3 3 3 3 2 2 2 1
13 13 14 14 14 14 14 14 14 14 13 12 13 14 14 14 14 14 14 13 12 9 8 9 9 7 6 4 4 5 5 5 4 3 3 3 2 2 2 3 2 2 2
13 12 13 14 13 14 14 15 16 14 13 12 14 14 14 14 13 13 13 13 13 11 9 9 9 8 8 7 6 5 5 5 5 4 3 4 3 3 3 3 2 3 3
12 12 13 13 13 14 14 16 15 15 14 14 15 14 13 13 13 13 12 12 11 11 11 11 9 9 9 7 6 5 5 6 6 4 4 5 5 4 4 3 4 4 3
12 12 12 13 13 13 15 16 16 14 15 15 15 14 14 14 13 12 11 11 11 10 10 10 9 9 10 10 9 7 6 6 5 3 3 4 4 3 4 4 5 5 4
11 12 12 12 12 13 15 15 15 13 13 14 14 14 14 13 13 12 11 10 10 10 10 10 10 9 9 9 9 7 5 4 5 4 3 3 3 2 4 5 3 4 4
11 11 11 12 13 13 15 15 14 13 12 12 13 13 13 13 13 12 11 10 8 9 10 9 9 9 8 8 8 7 6 5 5 3 4 3 3 3 3 4 5 5 5
Height
879 883 886 890 893 895 897 900 903 905 907 909 911 913 915 916 918 919 920 919 919 921 921 921 921 921 921 920 920 919 918 917 916 915 914 913 912 911 910 908 907 906 904
880 882 886 890 894 898 900 902 904 907 910 913 914 916 917 919 920 921 922 922 921 923 923 923 923 924 924 924 923 922 921 921 920 919 918 917 915 914 913 912 910 908 907
880 882 885 890 895 899 901 903 906 908 912 916 917 919 920 922 923 924 925 925 926 925 925 925 926 926 926 926 926 925 924 924 923 922 921 920 918 917 916 914 913 911 909
879 882 886 890 893 898 902 904 908 910 914 918 921 922 923 924 926 927 927 927 927 928 928 927 927 927 928 927 927 927 926 926 925 924 923 922 921 920 918 916 915 913 912
878 882 885 889 891 896 901 905 908 911 914 919 923 924 925 927 929 931 930 930 929 928 929 929 928 928 930 929 929 929 928 928 927 927 926 925 923 922 920 919 917 916 914
877 880 885 888 891 895 899 904 908 912 916 918 924 927 928 930 932 933 933 932 930 929 929 929 931 931 930 931 931 930 930 930 929 929 928 927 926 924 922 920 919 918 916
874 878 881 886 890 893 896 902 907 910 916 919 922 928 931 932 933 934 935 934 932 932 930 930 931 932 933 932 932 932 932 931 931 930 929 928 927 925 924 922 921 919 917
871 875 878 882 886 891 895 900 903 909 915 917 919 925 930 935 934 934 935 934 932 933 932 930 930 931 933 933 933 933 933 933 932 931 930 929 928 927 925 924 923 921 919
867 871 875 879 883 887 891 896 900 903 907 915 916 918 923 920 929 932 933 934 932 933 932 931 931 931 932 933 933 933 933 933 932 932 932 931 930 929 927 926 924 922 921
863 868 871 874 879 883 888 892 897 900 903 908 914 915 917 918 921 928 931 931 932 932 931 931 931 931 931 931 931 931 932 933 932 932 932 931 931 930 929 927 925 924 922
857 863 866 870 875 879 884 888 894 898 902 904 907 911 915 916 917 918 921 927 930 930 930 930 929 930 930 930 931 931 932 932 932 931 931 931 931 930 930 928 927 925 924
852 857 861 864 870 874 879 884 889 893 897 901 905 907 909 911 913 914 917 922 924 927 927 927 927 928 928 929 930 930 930 931 930 929 930 930 931 930 929 928 927 926 925
844 848 854 859 864 869 874 880 884 889 893 897 899 903 906 908 909 911 913 917 920 924 925 924 925 925 925 925 927 927 928 929 928 927 928 928 928 928 928 926 924 923 923
835 840 847 853 858 863 869 874 879 883 888 893 896 900 903 905 906 908 909 911 917 919 920 919 920 920 921 922 923 924 926 926 926 926 926 927 927 927 925 924 924 923 922
828 833 839 845 852 857 864 870 874 878 884 889 892 895 899 901 904 905 906 908 908 910 911 914 915 915 918 918 920 922 923 923 923 924 925 925 925 925 924 924 923 922 922
822 827 832 838 845 850 858 864 868 873 878 882 888 891 894 898 899 901 903 904 905 906 904 908 910 909 912 914 916 919 920 921 921 921 922 923 923 923 923 923 923 921 920
812 818 824 831 838 844 851 857 862 866 872 877 882 886 889 893 895 897 898 899 900 902 903 905 906 906 908 911 912 915 916 918 919 919 920 920 921 922 923 924 923 921 919
804 810 816 824 831 837 844 850 855 860 865 870 874 880 883 888 890 892 893 894 896 897 899 901 903 903 905 907 910 911 912 914 916 916 917 918 918 919 918 917 917 915 914
798 805 809 816 822 828 836 843 848 853 858 863 868 872 877 881 884 887 888 890 891 893 894 897 899 901 903 904 906 908 909 911 912 912 913 913 913 914 913 913 913 912 912
792 800 800 807 815 822 829 835 841 846 852 857 861 865 870 873 877 881 882 884 885 888 890 893 894 896 899 899 902 903 904 905 907 908 907 908 908 907 907 908 907 907 906
784 791 795 801 808 815 821 826 833 839 845 850 854 858 862 866 871 874 876 878 880 883 886 888 888 888 891 894 894 897 898 900 901 903 903 902 902 901 900 900 900 899 899
778 786 790 794 800 807 812 818 826 832 838 842 846 851 856 861 865 869 872 874 875 875 878 881 883 881 880 885 890 891 894 895 897 896 897 897 896 894 893 892 891 890 891
772 778 785 787 793 800 805 812 820 826 830 834 839 844 849 853 858 862 865 868 869 871 873 874 875 877 877 874 880 885 886 887 889 890 891 890 890 887 887 885 883 883 884
762 772 777 781 786 793 798 807 813 820 825 828 832 837 841 845 849 853 857 860 862 864 867 869 871 872 873 872 872 877 880 882 883 884 886 885 882 880 880 878 875 876 876
758 766 770 772 780 785 792 801 808 814 819 822 826 830 834 838 842 847 849 852 856 858 860 862 865 867 868 868 869 872 875 878 878 877 877 880 875 873 871 869 870 867 869
751 759 764 766 772 777 785 794 801 806 811 814 819 822 825 829 834 839 842 846 848 848 852 855 858 860 862 863 864 866 870 870 873 872 869 872 870 870 866 861 861 861 862
Wind_Speed
29 28 24 21 17 21 20 20 21 21 20 19 19 19 19 19 19 20 19 23 20 18 18 17 17 17 17 17 17 17 18 18 17 19 18 20 19 19 19 19 21 21 20
29 28 27 20 21 18 19 20 20 20 18 17 18 17 16 16 15 15 16 17 21 19 19 17 16 17 16 16 16 16 17 16 16 17 18 18 18 18 19 19 19 19 20
29 30 29 22 21 18 21 21 20 20 18 16 17 17 16 15 15 14 13 14 16 17 16 17 16 15 15 14 14 14 15 15 16 17 17 16 17 17 17 18 18 18 19
30 31 31 21 23 21 20 20 20 20 19 17 17 16 16 16 15 14 14 13 12 12 14 16 15 16 14 13 13 13 13 14 14 13 15 16 16 16 17 17 17 18 18
30 31 33 23 30 24 22 20 19 20 21 18 16 15 15 14 13 12 12 13 13 11 10 14 14 16 14 13 13 12 12 12 13 13 13 14 14 15 15 16 16 16 17
29 31 32 30 32 24 27 26 21 19 20 20 17 14 13 12 10 9 9 10 11 11 11 10 9 9 11 10 12 11 11 11 12 12 13 13 13 13 14 14 15 15 16
30 32 33 34 31 26 32 30 23 25 20 20 18 13 10 8 7 7 6 8 9 9 11 10 8 8 9 11 9 10 10 10 10 11 11 11 11 11 12 13 13 14 14
32 32 35 37 34 30 31 34 31 25 17 21 12 11 6 4 4 5 5 5 7 6 7 9 9 8 7 7 8 8 9 8 9 9 9 9 10 10 10 11 12 12 13
35 33 36 40 36 34 34 37 37 25 23 23 22 6 4 4 11 6 7 6 6 5 5 7 7 7 6 5 6 7 8 7 7 7 8 7 7 8 9 10 10 11 12
35 34 36 39 40 37 35 38 40 27 27 27 23 6 5 9 4 5 8 8 7 6 5 5 5 5 5 5 6 8 10 8 7 7 6 6 6 6 7 8 9 10 10
33 36 37 39 40 39 38 38 40 33 27 24 26 12 8 6 6 4 5 9 8 9 8 6 6 5 4 5 5 6 9 10 9 6 5 4 4 5 5 6 7 8 9
35 37 39 40 40 40 39 39 40 39 31 24 25 15 13 8 10 5 3 8 10 11 11 9 9 7 5 5 6 8 9 9 8 7 6 4 4 4 4 5 6 6 7
33 40 40 39 41 41 39 39 39 40 34 29 31 21 13 11 7 8 8 7 6 8 10 13 12 10 9 7 7 7 8 8 7 6 6 5 4 3 3 3 3 4 6
38 42 43 41 41 41 39 41 40 40 37 35 32 26 16 15 12 12 8 10 5 7 9 6 16 15 12 10 9 8 8 8 8 6 5 5 4 3 3 2 1 3 4
36 42 43 42 40 41 40 41 39 38 34 34 32 33 25 15 15 13 14 11 7 4 8 14 9 18 15 14 12 10 9 10 9 8 6 6 6 5 5 3 2 1 1
37 40 43 41 40 40 40 42 38 37 36 34 31 30 28 24 21 19 19 16 13 10 5 7 15 12 19 16 14 12 11 10 10 9 8 8 7 6 5 3 3 3 3
40 43 44 43 40 39 41 42 40 38 36 33 31 29 30 28 24 22 21 17 15 12 9 6 9 13 17 17 16 15 14 13 11 11 10 9 8 7 6 4 4 4 5
43 45 44 43 42 38 43 44 42 40 39 37 35 30 29 30 29 24 22 20 18 15 11 10 12 12 14 18 16 16 15 14 13 14 13 11 11 10 9 9 9 8 7
40 37 38 42 42 43 44 45 45 44 41 40 36 34 35 32 31 27 24 20 18 16 14 10 9 10 11 15 18 17 16 15 15 18 17 16 16 15 15 15 15 14 12
39 35 42 44 43 44 46 46 43 42 40 37 36 39 37 34 34 31 27 25 20 16 14 12 11 11 11 11 17 18 18 18 17 17 20 20 20 21 22 22 21 21 19
39 38 39 41 41 43 46 46 43 43 37 33 35 36 37 35 34 33 30 25 21 17 16 16 13 11 13 12 21 17 18 15 17 19 18 18 19 22 24 27 28 27 25
34 34 35 41 41 44 47 48 45 41 36 33 35 34 35 33 32 32 30 27 23 24 21 19 18 17 18 18 16 18 16 15 10 15 19 21 19 22 22 22 26 27 27
33 35 37 38 40 42 46 46 43 40 40 38 36 34 34 34 33 31 30 27 24 24 26 22 20 19 16 19 18 18 19 18 12 8 12 14 15 20 20 22 27 29 28
35 36 38 40 38 38 44 44 40 40 40 38 36 34 34 34 35 33 30 28 27 27 27 26 21 16 16 14 18 17 18 16 12 12 13 11 12 17 15 18 22 25 27
33 35 38 38 37 36 43 41 38 37 36 35 35 34 34 34 34 32 31 28 25 26 28 26 24 22 18 16 15 17 15 14 12 11 16 11 12 14 17 21 19 24 25
35 34 31 35 41 39 42 40 38 39 32 33 33 33 34 34 33 32 32 28 25 28 28 26 26 24 22 20 20 19 15 17 11 6 15 15 15 9 6 8 8 7 10
Wind_Direction
161 162 159 151 145 139 132 129 127 123 120 117 114 111 104 103 103 102 97 95 92 86 89 82 83 78 71 73 74 72 73 75 72 70 70 69 64 63 60 56 50 47 47
167 168 168 154 150 141 138 134 133 127 123 121 116 113 107 107 105 104 105 98 101 90 82 82 88 82 75 76 77 74 74 77 71 69 72 67 64 64 57 55 51 49 46
175 177 172 162 153 149 143 139 134 128 124 121 116 112 106 100 97 98 103 102 98 98 101 83 78 93 84 79 78 78 78 81 72 75 73 66 66 66 58 56 55 49 45
184 182 177 166 163 154 151 146 142 133 128 126 119 111 105 102 97 94 97 98 97 95 90 110 78 83 84 87 85 83 80 81 75 72 72 73 68 61 60 57 54 52 45
190 187 182 174 173 161 162 154 147 142 137 129 122 114 109 105 101 98 95 95 92 91 95 110 117 94 81 86 86 86 87 80 80 77 74 70 70 66 62 60 55 50 46
193 192 183 181 179 166 170 165 152 145 142 135 126 113 108 108 108 107 102 98 94 92 95 112 105 100 105 90 85 88 87 84 83 82 78 74 68 68 65 61 57 53 49
194 194 192 186 184 182 183 178 156 148 146 145 126 113 104 109 118 122 119 112 101 92 96 98 109 107 105 102 90 83 88 89 88 80 82 76 72 68 66 59 56 51 50
195 193 199 193 191 188 186 183 171 154 158 162 150 137 146 149 173 164 158 143 121 106 94 93 103 121 117 101 112 105 89 91 90 90 84 77 74 69 62 61 57 53 49
199 195 203 201 198 197 191 189 183 172 166 180 171 152 162 187 161 187 192 183 161 144 122 102 101 117 139 119 110 121 118 114 106 99 88 90 79 71 66 61 58 54 50
205 196 203 204 204 203 198 194 192 185 175 179 183 209 210 152 179 172 198 204 198 194 172 140 120 116 131 134 145 155 147 130 120 113 103 94 87 75 66 62 59 55 51
203 198 203 206 206 206 204 199 193 193 191 184 183 175 168 169 173 161 172 185 202 207 194 184 169 160 150 152 153 169 167 162 143 134 119 117 101 83 68 61 57 54 53
206 206 205 206 211 209 206 204 204 201 196 194 190 190 182 173 188 171 142 178 195 207 205 200 200 187 176 168 175 191 184 183 178 160 148 136 114 92 76 66 57 52 52
198 202 204 202 207 212 212 209 207 206 204 201 197 197 200 210 197 183 150 152 173 200 209 214 209 202 194 180 181 180 199 200 195 186 179 178 167 139 102 85 80 67 57
198 204 206 210 211 212 213 210 209 210 209 212 209 202 206 213 209 199 177 163 163 188 201 200 209 206 200 194 189 190 199 205 211 209 206 210 205 212 214 209 121 73 58
197 204 208 208 211 215 214 215 209 209 211 214 215 213 212 208 207 218 224 207 209 191 210 209 190 207 202 202 199 194 200 215 213 214 215 220 224 230 240 239 248 293 15
197 200 204 207 210 213 216 214 210 213 214 215 216 216 219 223 231 247 236 228 230 241 252 191 205 195 200 202 204 202 210 217 218 217 217 224 225 231 241 250 264 273 286
200 203 204 207 208 209 214 213 212 214 215 216 219 220 223 228 235 235 233 226 223 221 233 199 191 199 198 200 203 206 213 216 223 221 220 223 227 228 243 260 275 287 293
205 202 204 206 209 208 213 215 213 215 218 217 221 222 224 227 232 236 229 224 222 220 214 191 194 197 201 206 206 206 212 219 222 229 227 228 233 234 240 247 254 260 270
201 199 199 204 208 212 214 217 218 218 222 223 223 223 226 225 227 230 224 223 223 221 215 197 175 192 200 203 206 212 217 224 230 233 234 236 240 244 246 253 256 260 262
202 203 205 208 212 213 215 216 216 216 223 225 225 230 226 224 224 225 221 225 223 216 211 205 195 188 201 206 207 212 219 225 232 234 237 237 245 250 251 255 258 259 260
206 208 203 206 209 211 213 213 215 218 220 221 225 227 226 228 228 228 226 225 223 212 209 207 205 195 199 197 205 214 219 224 236 232 238 239 241 247 249 253 255 258 258
202 203 204 205 205 212 217 218 219 217 217 216 219 221 223 225 228 231 234 237 243 223 211 210 216 213 209 211 208 207 209 208 237 235 232 246 241 244 248 247 249 259 261
198 204 206 202 206 212 218 219 220 220 218 218 222 222 220 225 227 229 231 234 239 238 237 225 216 221 212 209 205 204 209 208 220 224 205 246 238 250 253 252 260 262 259
199 204 205 205 205 209 217 219 218 219 221 223 224 223 223 225 226 225 225 227 228 227 228 230 233 236 233 225 216 218 216 218 222 228 226 257 242 253 258 257 265 264 259
199 204 206 200 201 206 217 218 214 212 219 222 224 225 226 226 228 227 223 222 222 226 228 229 232 232 231 228 219 208 200 197 224 230 227 240 250 259 269 271 262 265 259
200 203 202 201 206 206 215 214 212 212 214 218 222 225 228 227 228 228 223 218 218 222 226 225 228 230 229 229 225 226 219 213 213 227 234 213 248 248 276 270 257 249 278